Home > Weather > La Paz > Past weeks

Flag for Bolivia Weather for the Past 2 Weeks in La Paz, Bolivia

Now
37 °F

Clear.


Feels Like: 35 °F
Forecast: 34 / 65 °F
Wind: 3 mph from North

Location: La Paz / Alto

Current Time: Apr 29, 2016 at 4:42:48 AM

Latest Report: Apr 29, 2016 at 4:00 AM


Visibility: N/A

Pressure: 30.63 "Hg (19.60 "Hg at 3606m altitude)

Humidity: 56%

Dew Point: 23 °F

Location of La PazLocation

Historic Weather in La Paz — Graph

°F

La Paz Temperature Yesterday

Maximum temperature yesterday: 63 °F (at 3:00 PM)
Minimum temperature yesterday: 32 °F (at 4:00 AM)
Average temperature yesterday: 48 °F

High & Low Weather Summary for the Past Weeks

 TemperatureHumidityPressure
High63 °F (Apr 26, 3:00 PM)100% (Apr 14, 4:00 AM)30.80 "Hg (Apr 14, 4:00 AM)
Low28 °F (Apr 27, 5:00 AM)12% (Apr 26, 3:00 PM)30.51 "Hg (Apr 26, 4:00 PM)
Average46 °F60%30.66 "Hg
* Reported Apr 14 3:00 AM — Apr 29 3:00 AM, La Paz, Weather by CustomWeather, © 2016

Note: Actual official high and low records may vary slightly from our data, if they occured in-between our weather recording intervals... More about our weather records

Advertising

La Paz Weather History for the Previous 24 Hours

Scroll right to see more
 ConditionsComfort  
Time TempWeatherWind HumidityBarometerVisibility
3:00 AM
Fri, Apr 29
36 °FClear.2 mph60%30.63 "HgN/A
2:00 AM39 °FClear.2 mph52%30.63 "HgN/A
1:00 AM41 °FClear.2 mph49%30.66 "HgN/A
12:00 AM39 °FClear.3 mph56%30.66 "HgN/A
11:00 PM
Thu, Apr 28
41 °FClear.5 mph57%30.66 "HgN/A
10:00 PM48 °FClear.7 mph37%30.66 "HgN/A
9:00 PM46 °FClear.7 mph37%30.66 "HgN/A
8:00 PM45 °FClear.2 mph37%30.60 "HgN/A
7:00 PM50 °FClear.3 mph30%30.57 "HgN/A
6:00 PM59 °FClear.7 mph17%30.57 "HgN/A
5:00 PM63 °FClear.6 mph13%30.57 "HgN/A
4:00 PM63 °FClear.6 mph13%30.57 "HgN/A
3:00 PM63 °FClear.8 mph13%30.60 "HgN/A
2:00 PM61 °FClear.8 mph13%30.63 "HgN/A
1:00 PM59 °FClear.7 mph14%30.66 "HgN/A
12:00 PM57 °FClear.7 mph17%30.69 "HgN/A
11:00 AM54 °FClear.7 mph16%30.72 "HgN/A
10:00 AM52 °FClear.6 mph17%30.72 "HgN/A
9:00 AM48 °FClear.2 mph25%30.72 "HgN/A
8:00 AM43 °FClear.2 mph34%30.69 "HgN/A
7:00 AM36 °FClear.5 mph44%30.66 "HgN/A
6:00 AM37 °FClear.6 mph38%30.63 "HgN/A
5:00 AM39 °FClear.2 mph36%30.63 "HgN/A
4:00 AM32 °FClear.2 mph55%30.63 "HgN/A
Weather by CustomWeather, © 2016

See weather overviewHow to use our weather pages